Weather History for Cross City, FL

Change the Weather History Date:

Wednesday, February 13, 2013

  Actual Average Record
Temperature  
Mean Temperature 67 °F 57 °F  
Max Temperature 74 °F 70 °F 80 °F (2001)
Min Temperature 59 °F 43 °F 18 °F (2012)
Degree Days  
Heating Degree Days 0 9  
Month to date heating degree days 84 125  
Since 1 July heating degree days 690 1003  
Cooling Degree Days 2 0  
Month to date cooling degree days 21 12  
Year to date cooling degree days 72 23  
Growing Degree Days 18 (Base 50)    
Moisture  
Dew Point 66 °F    
Average Humidity 86    
Maximum Humidity 93    
Minimum Humidity 67    
Precipitation  
Precipitation 0.51 in 0.11 in 0.51 in (2013)
Month to date precipitation 1.32 1.17  
Year to date precipitation 1.90 5.21  
Sea Level Pressure  
Sea Level Pressure 29.89 in    
Wind  
Wind Speed 10 mph (SW)    
Max Wind Speed 21 mph    
Max Gust Speed 30 mph    
T = Trace of Precipitation, MM = Missing Value Source: NWS Daily Summary

Daily Weather History Graph

Daily Weather History Graph

Search for Another Location

Airport:

Trip Planner

Search our weather history database for the weather conditions in past years. The results will help you decide how hot, cold, wet, or windy it might be!

Date:

Astronomy

Feb. 13, 2013 Rise Set
Actual Time 7:13 AM EST 6:20 PM EST
Civil Twilight 6:48 AM EST 6:44 PM EST
Nautical Twilight 6:20 AM EST 7:12 PM EST
Astronomical Twilight 5:53 AM EST 7:40 PM EST
Moon 9:02 AM EST (2/13) 9:58 PM EST (2/13)
Length of Visible Light 11h 55m
Length of Day
11h 06m
Waxing Crescent, 13% of the Moon is Illuminated
Feb 13
Waxing Crescent
Feb 17
First Quarter
Feb 25
Full
Mar 4
Last Quarter
Mar 11
New

Hourly Weather History & Observations

Time (EST) Temp. Dew Point Humidity Pressure Visibility Wind Dir Wind Speed Gust Speed Precip Events Conditions
12:53 AM 71.1 °F 68.0 °F 90% 29.89 in - SSW 16.1 mph 26.5 mph N/A   Unknown
1:53 AM 72.0 °F 68.0 °F 87% 29.88 in - SSW 15.0 mph 24.2 mph N/A   Unknown
2:53 AM 72.0 °F 69.1 °F 91% 29.86 in - SSW 13.8 mph 23.0 mph 0.01 in   Unknown
3:53 AM 72.0 °F 69.1 °F 91% 29.86 in - SSW 17.3 mph 23.0 mph N/A   Unknown
4:53 AM 72.0 °F 69.1 °F 91% 29.86 in - SSW 13.8 mph 23.0 mph N/A   Unknown
5:53 AM 72.0 °F 69.1 °F 91% 29.85 in - SSW 18.4 mph 27.6 mph 0.01 in   Unknown
6:53 AM 72.0 °F 69.1 °F 91% 29.86 in - SSW 13.8 mph 24.2 mph 0.01 in   Unknown
7:53 AM 72.0 °F 70.0 °F 93% 29.87 in - SW 15.0 mph 29.9 mph 0.02 in   Unknown
8:53 AM 71.1 °F 69.1 °F 93% 29.90 in - SW 11.5 mph 23.0 mph 0.17 in   Unknown
9:53 AM 72.0 °F 69.1 °F 91% 29.89 in - WSW 8.1 mph - N/A   Unknown
10:53 AM 73.0 °F 69.1 °F 87% 29.90 in - SW 12.7 mph - N/A   Unknown
11:53 AM 73.0 °F 70.0 °F 90% 29.88 in - SW 9.2 mph - 0.20 in   Unknown
12:53 PM 73.0 °F 70.0 °F 90% 29.86 in - WSW 3.5 mph - N/A   Unknown
1:53 PM 72.0 °F 69.1 °F 91% 29.86 in - SW 9.2 mph - 0.01 in   Unknown
2:53 PM 71.1 °F 66.9 °F 87% 29.86 in - WSW 5.8 mph - N/A   Unknown
3:53 PM 70.0 °F 66.0 °F 87% 29.86 in - WSW 4.6 mph - N/A   Unknown
4:53 PM 70.0 °F 66.0 °F 87% 29.88 in - WSW 6.9 mph - N/A   Unknown
5:53 PM 69.1 °F 63.0 °F 81% 29.90 in - WNW 9.2 mph - N/A   Unknown
6:53 PM 66.9 °F 60.1 °F 79% 29.90 in - WNW 5.8 mph - N/A   Unknown
7:53 PM 64.9 °F 59.0 °F 81% 29.92 in - Calm Calm - N/A   Unknown
8:53 PM 64.9 °F 57.0 °F 75% 29.95 in - SW 4.6 mph - N/A   Unknown
9:53 PM 64.0 °F 57.0 °F 78% 29.96 in - WSW 4.6 mph - N/A   Unknown
10:53 PM 63.0 °F 51.1 °F 65% 29.95 in - NW 9.2 mph - N/A   Unknown
11:53 PM 59.0 °F 55.0 °F 87% 29.96 in - West 4.6 mph - 0.08 in   Unknown